When you browse on this site, cookies collect data to enhance your experience and personalize the content and advertising you see.
Visit our Privacy Policy to learn more. By continuing to use the site, you agree to this use of cookies and data.
  • In Österreich
  • Länderverzeichnis
  • Für 7 Tage
  • Wassertemperatur
  • Satellitenkarten
  • Wetterkarte
  • News
  • Widgets
  • user-avatar
    Anmelden

    Stündliche Wetter Krakow

    Heute, 21 Mai, Dienstag

    Zeit Temperatur Niederschläge Wind Luftdruck Luftfeuchtigkeit
    00:00 +13°C° 0 mm 1 m/S 735 mmHg 84%
    01:00 +13°C° 0 mm 1 m/S 735 mmHg 85%
    02:00 +13°C° 0 mm 1 m/S 734 mmHg 85%
    03:00 +12°C° 0 mm 1 m/S 734 mmHg 85%
    04:00 +12°C° 0 mm 1 m/S 734 mmHg 85%
    05:00 +13°C° 0 mm 1 m/S 734 mmHg 83%
    06:00 +15°C° 0 mm 2 m/S 734 mmHg 82%
    07:00 +16°C° 0 mm 1 m/S 734 mmHg 82%
    08:00 +16°C° 0.5 mm 2 m/S 734 mmHg 82%
    09:00 +16°C° 0.5 mm 2 m/S 734 mmHg 83%
    10:00 +16°C° 0.5 mm 2 m/S 734 mmHg 83%
    11:00 +16°C° 1.1 mm 2 m/S 734 mmHg 83%
    12:00 +17°C° 1.1 mm 2 m/S 733 mmHg 83%
    13:00 +17°C° 1.1 mm 2 m/S 733 mmHg 84%
    14:00 +16°C° 0.8 mm 3 m/S 733 mmHg 85%
    15:00 +16°C° 0.8 mm 3 m/S 733 mmHg 87%
    16:00 +16°C° 0.8 mm 3 m/S 733 mmHg 89%
    17:00 +15°C° 0.3 mm 4 m/S 732 mmHg 88%
    18:00 +15°C° 0.3 mm 5 m/S 732 mmHg 88%
    19:00 +15°C° 0.3 mm 5 m/S 732 mmHg 87%
    20:00 +15°C° 0.8 mm 5 m/S 732 mmHg 88%
    21:00 +14°C° 0.8 mm 6 m/S 732 mmHg 89%
    22:00 +14°C° 0.8 mm 6 m/S 732 mmHg 91%
    23:00 +14°C° 0.7 mm 6 m/S 732 mmHg 91%

    Morgen, 22 Mai, Mittwoch

    Zeit Temperatur Niederschläge Wind Luftdruck Luftfeuchtigkeit
    00:00 +14°C° 0.7 mm 6 m/S 732 mmHg 91%
    01:00 +14°C° 0.7 mm 6 m/S 732 mmHg 91%
    02:00 +14°C° 0.5 mm 5 m/S 732 mmHg 91%
    03:00 +14°C° 0.5 mm 5 m/S 732 mmHg 92%
    04:00 +14°C° 0.5 mm 5 m/S 732 mmHg 92%
    05:00 +14°C° 0.4 mm 5 m/S 732 mmHg 92%
    06:00 +14°C° 0.4 mm 4 m/S 733 mmHg 92%
    07:00 +14°C° 0.4 mm 4 m/S 733 mmHg 92%
    08:00 +15°C° 0.7 mm 4 m/S 733 mmHg 89%
    09:00 +15°C° 0.7 mm 4 m/S 733 mmHg 87%
    10:00 +16°C° 0.7 mm 5 m/S 734 mmHg 85%
    11:00 +15°C° 0.8 mm 4 m/S 734 mmHg 86%
    12:00 +15°C° 0.8 mm 4 m/S 734 mmHg 88%
    13:00 +15°C° 0.8 mm 4 m/S 734 mmHg 89%
    14:00 +15°C° 0.3 mm 4 m/S 734 mmHg 88%
    15:00 +15°C° 0.3 mm 4 m/S 734 mmHg 87%
    16:00 +17°C° 0.3 mm 4 m/S 734 mmHg 86%
    17:00 +15°C° 1.1 mm 5 m/S 734 mmHg 88%
    18:00 +15°C° 1.1 mm 5 m/S 734 mmHg 89%
    19:00 +14°C° 1.1 mm 6 m/S 734 mmHg 91%
    20:00 +14°C° 1.2 mm 6 m/S 735 mmHg 92%
    21:00 +14°C° 1.2 mm 6 m/S 735 mmHg 93%
    22:00 +14°C° 1.2 mm 6 m/S 736 mmHg 94%
    23:00 +14°C° 2.1 mm 6 m/S 736 mmHg 94%

    übermorgen, 23 Mai, Donnerstag

    Zeit Temperatur Niederschläge Wind Luftdruck Luftfeuchtigkeit
    00:00 +14°C° 2.1 mm 6 m/S 736 mmHg 94%
    01:00 +14°C° 2.1 mm 6 m/S 736 mmHg 95%
    02:00 +14°C° 1.4 mm 6 m/S 736 mmHg 95%
    03:00 +14°C° 1.4 mm 6 m/S 737 mmHg 95%
    04:00 +14°C° 1.4 mm 6 m/S 737 mmHg 95%
    05:00 +14°C° 1.3 mm 6 m/S 737 mmHg 94%
    06:00 +14°C° 1.3 mm 6 m/S 738 mmHg 94%
    07:00 +14°C° 1.3 mm 6 m/S 738 mmHg 94%
    08:00 +14°C° 2 mm 6 m/S 738 mmHg 94%
    09:00 +14°C° 2 mm 6 m/S 739 mmHg 94%
    10:00 +14°C° 2 mm 6 m/S 739 mmHg 94%
    11:00 +13°C° 1.6 mm 6 m/S 739 mmHg 94%
    12:00 +13°C° 1.6 mm 6 m/S 740 mmHg 93%
    13:00 +12°C° 1.6 mm 7 m/S 740 mmHg 93%
    14:00 +13°C° 0.3 mm 6 m/S 740 mmHg 93%
    15:00 +11°C° 0.3 mm 6 m/S 740 mmHg 93%
    16:00 +11°C° 0.3 mm 6 m/S 740 mmHg 93%
    17:00 +11°C° 0.3 mm 6 m/S 740 mmHg 93%
    18:00 +12°C° 0.3 mm 5 m/S 741 mmHg 93%
    19:00 +12°C° 0.3 mm 5 m/S 741 mmHg 93%
    20:00 +12°C° 0.1 mm 5 m/S 741 mmHg 92%
    21:00 +12°C° 0.1 mm 4 m/S 741 mmHg 92%
    22:00 +11°C° 0.1 mm 4 m/S 741 mmHg 91%
    23:00 +11°C° 0.1 mm 4 m/S 741 mmHg 91%

    24 Mai, Freitag

    Zeit Temperatur Niederschläge Wind Luftdruck Luftfeuchtigkeit
    00:00 +11°C° 0.1 mm 3 m/S 741 mmHg 91%
    01:00 +11°C° 0.1 mm 3 m/S 741 mmHg 91%
    02:00 +10°C° 0 mm 3 m/S 741 mmHg 91%
    03:00 +10°C° 0 mm 3 m/S 741 mmHg 91%
    04:00 +9°C° 0 mm 3 m/S 741 mmHg 91%
    05:00 +10°C° 0 mm 3 m/S 741 mmHg 88%
    06:00 +10°C° 0 mm 3 m/S 741 mmHg 85%
    07:00 +11°C° 0 mm 3 m/S 741 mmHg 82%
    08:00 +12°C° 0 mm 3 m/S 741 mmHg 77%
    09:00 +13°C° 0 mm 3 m/S 741 mmHg 71%
    10:00 +14°C° 0 mm 3 m/S 741 mmHg 65%
    11:00 +16°C° 0 mm 3 m/S 741 mmHg 64%
    12:00 +17°C° 0 mm 3 m/S 741 mmHg 63%
    13:00 +17°C° 0 mm 2 m/S 741 mmHg 61%
    14:00 +18°C° 0 mm 2 m/S 741 mmHg 62%
    15:00 +18°C° 0 mm 2 m/S 740 mmHg 62%
    16:00 +18°C° 0 mm 2 m/S 740 mmHg 63%
    17:00 +17°C° 0 mm 2 m/S 740 mmHg 67%
    18:00 +16°C° 0 mm 1 m/S 740 mmHg 72%
    19:00 +15°C° 0 mm 1 m/S 740 mmHg 76%
    20:00 +14°C° 0 mm 1 m/S 740 mmHg 78%
    21:00 +13°C° 0 mm 1 m/S 740 mmHg 79%
    22:00 +12°C° 0 mm 1 m/S 740 mmHg 81%
    23:00 +11°C° 0 mm 1 m/S 740 mmHg 82%

    25 Mai, Samstag

    Zeit Temperatur Niederschläge Wind Luftdruck Luftfeuchtigkeit
    00:00 +10°C° 0 mm 2 m/S 740 mmHg 82%
    01:00 +10°C° 0 mm 2 m/S 740 mmHg 83%
    02:00 +9°C° 0 mm 2 m/S 740 mmHg 84%
    03:00 +9°C° 0 mm 2 m/S 740 mmHg 86%
    04:00 +9°C° 0 mm 2 m/S 739 mmHg 87%
    05:00 +12°C° 0 mm 2 m/S 739 mmHg 83%
    06:00 +12°C° 0 mm 3 m/S 739 mmHg 78%
    07:00 +14°C° 0 mm 3 m/S 739 mmHg 74%
    08:00 +17°C° 0.1 mm 4 m/S 739 mmHg 70%
    09:00 +18°C° 0.1 mm 4 m/S 739 mmHg 67%
    10:00 +19°C° 0.1 mm 5 m/S 740 mmHg 64%
    11:00 +19°C° 0.6 mm 5 m/S 739 mmHg 67%
    12:00 +19°C° 0.6 mm 5 m/S 739 mmHg 70%
    13:00 +19°C° 0.6 mm 6 m/S 739 mmHg 73%
    14:00 +19°C° 0.3 mm 5 m/S 739 mmHg 71%
    15:00 +19°C° 0.3 mm 5 m/S 739 mmHg 70%
    16:00 +19°C° 0.3 mm 4 m/S 739 mmHg 69%
    17:00 +18°C° 0.1 mm 4 m/S 739 mmHg 73%
    18:00 +16°C° 0.1 mm 3 m/S 739 mmHg 77%
    19:00 +15°C° 0.1 mm 2 m/S 739 mmHg 81%
    20:00 +14°C° 0 mm 2 m/S 740 mmHg 81%
    21:00 +13°C° 0 mm 2 m/S 740 mmHg 82%
    22:00 +13°C° 0 mm 1 m/S 740 mmHg 83%
    23:00 +13°C° 0 mm 2 m/S 740 mmHg 83%

    26 Mai, Sonntag

    Zeit Temperatur Niederschläge Wind Luftdruck Luftfeuchtigkeit
    00:00 +12°C° 0 mm 2 m/S 740 mmHg 83%
    01:00 +11°C° 0 mm 3 m/S 740 mmHg 83%
    02:00 +11°C° 0 mm 3 m/S 740 mmHg 83%
    03:00 +10°C° 0 mm 3 m/S 740 mmHg 83%
    04:00 +9°C° 0 mm 3 m/S 740 mmHg 83%
    05:00 +10°C° 0 mm 3 m/S 740 mmHg 82%
    06:00 +11°C° 0 mm 4 m/S 739 mmHg 82%
    07:00 +12°C° 0 mm 5 m/S 739 mmHg 81%
    08:00 +13°C° 0.1 mm 5 m/S 739 mmHg 77%
    09:00 +14°C° 0.1 mm 5 m/S 739 mmHg 73%
    10:00 +14°C° 0.1 mm 6 m/S 739 mmHg 69%
    11:00 +14°C° 0.1 mm 6 m/S 739 mmHg 69%
    12:00 +15°C° 0.1 mm 6 m/S 739 mmHg 68%
    13:00 +15°C° 0.1 mm 6 m/S 739 mmHg 67%
    14:00 +15°C° 0.1 mm 6 m/S 739 mmHg 68%
    15:00 +15°C° 0.1 mm 6 m/S 738 mmHg 69%
    16:00 +15°C° 0.1 mm 6 m/S 738 mmHg 70%
    17:00 +14°C° 0.1 mm 5 m/S 738 mmHg 72%
    18:00 +13°C° 0.1 mm 4 m/S 738 mmHg 74%
    19:00 +13°C° 0.1 mm 4 m/S 738 mmHg 76%
    20:00 +12°C° 0 mm 3 m/S 738 mmHg 76%
    21:00 +11°C° 0 mm 3 m/S 739 mmHg 77%
    22:00 +10°C° 0 mm 2 m/S 739 mmHg 78%
    23:00 +10°C° 0.3 mm 2 m/S 739 mmHg 82%
    Mehr zeigen